DW8453 Bekkjarvik NO current weather conditions

sailwx.info

Wind from 238 at 26 knots gusting 26

Air temperature 13.3° C
Dewpoint 12.4° C

Last reported at 2016-Sep-29 05:52 UTC.
Time now 2016-Sep-29 06:43 UTC

Location: N 60°01' E 005°12'.
View on Google Maps.

See reports from other nearby stations

  
Tides and Currents Weather Stations Pressure Air Temp Water Temp Dewpoint Dewpoint Depression Visibility Wind Speed Wind Dir Waves Ship Positions
date/time (UTC)wind fromknots sea level pressurealtimeterstation pressurevisibilityair tempwater tempwave heightnotes
2016-Sep-29 05:52 238 26 gusting 26 13.3
2016-Sep-29 05:47 257 22 gusting 24 13.3
2016-Sep-29 05:42 213 18 gusting 17 13.3
2016-Sep-29 05:37 248 18 gusting 21 13.3
2016-Sep-29 05:32 243 24 gusting 24 13.3
2016-Sep-29 05:27 258 25 gusting 28 13.3
2016-Sep-29 05:23 251 24 gusting 25 13.3
2016-Sep-29 05:17 254 19 gusting 24 13.9
2016-Sep-29 05:12 262 12 gusting 19 13.9
2016-Sep-29 05:07 253 15 gusting 19 13.9
2016-Sep-29 05:02 260 14 gusting 19 13.9
2016-Sep-29 04:57 261 18 gusting 18 13.9
2016-Sep-29 04:52 252 19 gusting 20 13.9
2016-Sep-29 04:47 248 18 gusting 18 13.9
2016-Sep-29 04:42 230 14 gusting 18 13.9
2016-Sep-29 04:37 228 17 gusting 21 13.9
2016-Sep-29 04:32 247 16 gusting 20 13.9
2016-Sep-29 04:27 244 19 gusting 20 13.9
2016-Sep-29 04:22 252 17 gusting 18 13.9
2016-Sep-29 04:17 253 13 gusting 19 14.4
2016-Sep-29 04:12 239 15 gusting 21 14.4
2016-Sep-29 04:07 248 20 gusting 21 14.4
2016-Sep-29 04:02 252 18 gusting 15 14.4
2016-Sep-29 03:57 249 14 gusting 19 14.4
2016-Sep-29 03:52 258 17 gusting 19 14.4
2016-Sep-29 03:47 240 19 gusting 22 14.4
2016-Sep-29 03:42 262 20 gusting 19 14.4
2016-Sep-29 03:37 245 17 gusting 19 14.4
2016-Sep-29 03:32 239 19 gusting 18 14.4
2016-Sep-29 03:27 228 13 gusting 19 14.4
2016-Sep-29 03:22 216 13 gusting 22 14.4
2016-Sep-29 03:17 252 19 gusting 17 14.4
2016-Sep-29 03:12 228 18 gusting 18 14.4
2016-Sep-29 03:07 238 15 gusting 18 14.4
2016-Sep-29 03:02 224 14 gusting 14 14.4
2016-Sep-29 02:57 209 14 gusting 17 14.4
2016-Sep-29 02:52 211 16 gusting 19 14.4
2016-Sep-29 02:47 230 13 gusting 18 14.4
2016-Sep-29 02:42 240 15 gusting 19 14.4
2016-Sep-29 02:37 240 17 gusting 25 14.4
2016-Sep-29 02:32 232 18 gusting 17 14.4
2016-Sep-29 02:27 233 17 gusting 19 14.4
2016-Sep-29 02:22 225 20 gusting 25 14.4
2016-Sep-29 02:17 218 18 gusting 25 14.4
2016-Sep-29 02:12 247 19 gusting 25 14.4
2016-Sep-29 02:07 237 19 gusting 20 14.4
2016-Sep-29 02:02 237 21 gusting 21 14.4
2016-Sep-29 01:57 238 19 gusting 24 13.9
2016-Sep-29 01:52 213 23 gusting 24 13.9
2016-Sep-29 01:47 222 19 gusting 24 13.3
2016-Sep-29 01:42 212 13 gusting 17 13.3
2016-Sep-29 01:37 199 14 gusting 15 13.3
2016-Sep-29 01:32 199 15 gusting 18 12.8
2016-Sep-29 01:27 189 11 gusting 15 12.8
2016-Sep-29 01:22 195 13 gusting 17 12.8
2016-Sep-29 01:17 196 17 gusting 15 12.2
2016-Sep-29 01:12 187 15 gusting 17 12.2
2016-Sep-29 01:07 190 17 gusting 19 12.2
2016-Sep-29 01:02 165 14 gusting 15 12.2
2016-Sep-29 00:57 209 17 gusting 15 12.2
2016-Sep-29 00:52 187 15 gusting 19 11.7
2016-Sep-29 00:47 202 23 gusting 21 11.7
2016-Sep-29 00:42 180 18 gusting 19 11.7
2016-Sep-29 00:37 172 17 gusting 20 11.7
2016-Sep-29 00:32 187 20 gusting 21 11.7
2016-Sep-29 00:27 182 18 gusting 17 11.7
2016-Sep-29 00:22 188 17 gusting 19 11.7
2016-Sep-29 00:17 179 22 gusting 19 11.7
2016-Sep-29 00:12 188 20 gusting 20 11.7
2016-Sep-29 00:07 163 19 gusting 20 11.7
2016-Sep-29 00:02 169 17 gusting 18 11.7
2016-Sep-28 23:57 162 17 gusting 19 11.7
2016-Sep-28 23:52 162 17 gusting 19 11.1
2016-Sep-28 23:47 196 16 gusting 17 11.1
2016-Sep-28 23:42 187 20 gusting 20 11.1
2016-Sep-28 23:37 158 19 gusting 18 11.1
2016-Sep-28 23:32 179 14 gusting 13 11.1
2016-Sep-28 23:27 161 15 gusting 17 11.1
2016-Sep-28 23:22 168 15 gusting 15 11.1
2016-Sep-28 23:17 168 15 gusting 17 11.1
2016-Sep-28 23:12 158 18 gusting 17 11.1
2016-Sep-28 23:07 153 18 gusting 17 11.1
2016-Sep-28 23:02 158 18 gusting 17 11.1
2016-Sep-28 22:57 157 19 gusting 19 11.1
2016-Sep-28 22:52 144 15 gusting 17 11.1
2016-Sep-28 22:47 151 14 gusting 15 11.1
2016-Sep-28 22:42 169 15 gusting 15 11.1
2016-Sep-28 22:37 148 16 gusting 15 11.1
2016-Sep-28 22:32 163 15 gusting 13 11.1
2016-Sep-28 22:27 154 14 gusting 13 11.1
2016-Sep-28 22:22 164 14 gusting 15 11.1
2016-Sep-28 22:17 163 18 gusting 17 11.1
2016-Sep-28 22:12 139 13 gusting 14 11.1
2016-Sep-28 22:07 177 15 gusting 14 11.1
2016-Sep-28 22:02 159 13 gusting 13 11.1
2016-Sep-28 21:57 170 11 gusting 11 11.1
2016-Sep-28 21:52 169 13 gusting 12 11.1
2016-Sep-28 21:47 158 13 gusting 15 11.1
2016-Sep-28 21:42 162 10 gusting 12 11.1
2016-Sep-28 21:37 181 12 gusting 12 11.1
2016-Sep-28 21:32 161 9 gusting 12 11.1
2016-Sep-28 21:27 177 11 gusting 15 11.1
2016-Sep-28 21:23 179 12 gusting 13 11.1
2016-Sep-28 21:17 154 11 gusting 11 11.1
2016-Sep-28 21:12 154 13 gusting 13 11.1
2016-Sep-28 21:07 193 12 gusting 13 11.1
2016-Sep-28 21:02 175 11 gusting 13 11.7
2016-Sep-28 20:57 153 12 gusting 13 11.7
2016-Sep-28 20:52 184 11 gusting 13 11.7
2016-Sep-28 20:47 180 12 gusting 11 11.7
2016-Sep-28 20:43 138 8 gusting 11 11.7
2016-Sep-28 20:37 162 10 gusting 10 11.7
2016-Sep-28 20:32 175 9 gusting 10 11.7
2016-Sep-28 20:27 158 10 gusting 8 11.7
2016-Sep-28 20:22 174 8 gusting 10 11.7
2016-Sep-28 20:17 144 8 gusting 7 11.7
2016-Sep-28 20:12 162 9 gusting 7 11.7
2016-Sep-28 20:07 172 10 gusting 11 11.7
2016-Sep-28 20:02 176 8 gusting 10 11.7
2016-Sep-28 19:58 178 10 gusting 10 11.1
2016-Sep-28 19:52 148 8 gusting 10 11.1
2016-Sep-28 19:47 134 6 gusting 6 11.1
2016-Sep-28 19:42 143 8 gusting 10 11.1
2016-Sep-28 19:37 159 7 gusting 7 11.1
2016-Sep-28 19:32 174 5 gusting 7 11.1
2016-Sep-28 19:27 170 5 gusting 7 11.1
2016-Sep-28 19:22 172 4 gusting 7 11.1
2016-Sep-28 19:17 180 5 gusting 5 10.6
2016-Sep-28 19:12 169 5 gusting 6 10.6
2016-Sep-28 19:07 189 6 gusting 6 10.6
2016-Sep-28 19:02 225 5 gusting 5 10.6
2016-Sep-28 18:57 193 5 gusting 5 10.6
2016-Sep-28 18:52 202 6 gusting 6 10.6
2016-Sep-28 18:47 204 6 gusting 6 10.6
2016-Sep-28 18:43 193 5 gusting 6 10.6
2016-Sep-28 18:38 205 4 gusting 5 10.6
2016-Sep-28 18:32 196 4 gusting 5 10.6
2016-Sep-28 18:27 206 5 gusting 5 10.6
2016-Sep-28 18:22 202 5 gusting 5 10.6
2016-Sep-28 18:17 197 5 gusting 5 10.6
2016-Sep-28 18:12 208 4 gusting 4 11.1
2016-Sep-28 18:07 231 4 gusting 5 11.1
2016-Sep-28 18:02 211 4 gusting 5 11.1
2016-Sep-28 17:57 225 4 gusting 4 11.1
2016-Sep-28 17:52 236 4 gusting 4 11.1
2016-Sep-28 17:47 219 4 gusting 5 11.1
2016-Sep-28 17:42 237 4 gusting 5 11.1
2016-Sep-28 17:37 224 4 gusting 4 11.1
2016-Sep-28 17:32 227 4 gusting 5 11.1
2016-Sep-28 17:27 219 3 gusting 4 11.1
2016-Sep-28 17:22 247 4 gusting 4 11.1
2016-Sep-28 17:17 236 2 gusting 4 11.1
2016-Sep-28 17:12 248 2 gusting 4 11.7
2016-Sep-28 17:07 239 1 gusting 2 11.7
2016-Sep-28 17:02 238 1 gusting 1 11.7
2016-Sep-28 16:57 225 0 gusting 2 11.7
2016-Sep-28 16:52 248 3 gusting 4 11.7
2016-Sep-28 16:47 270 2 gusting 2 11.7
2016-Sep-28 16:42 281 5 gusting 5 11.7
2016-Sep-28 16:37 270 6 gusting 6 11.7
2016-Sep-28 16:32 270 3 gusting 5 12.2
2016-Sep-28 16:27 265 5 gusting 6 12.2
2016-Sep-28 16:22 289 4 gusting 5 12.2
2016-Sep-28 16:17 275 4 gusting 6 12.2
2016-Sep-28 16:12 288 4 gusting 5 12.2
2016-Sep-28 16:07 298 5 gusting 6 12.2
2016-Sep-28 16:02 263 4 gusting 5 12.2
2016-Sep-28 15:57 289 5 gusting 6 12.2
2016-Sep-28 15:52 325 5 gusting 6 12.2
2016-Sep-28 15:47 308 5 gusting 6 12.2
2016-Sep-28 15:42 289 3 gusting 6 12.2
2016-Sep-28 15:37 326 6 gusting 6 12.2
2016-Sep-28 15:32 315 4 gusting 6 12.2
2016-Sep-28 15:27 280 6 gusting 6 12.8
2016-Sep-28 15:23 309 6 gusting 6 12.8
2016-Sep-28 15:17 305 6 gusting 6 12.8
2016-Sep-28 15:12 323 6 gusting 7 12.8
2016-Sep-28 15:07 305 7 gusting 7 12.8
2016-Sep-28 15:02 324 7 gusting 8 12.8
2016-Sep-28 14:57 335 6 gusting 6 12.8
2016-Sep-28 14:52 303 8 gusting 10 12.8
2016-Sep-28 14:47 303 9 gusting 11 12.8
2016-Sep-28 14:42 311 6 gusting 7 12.8
2016-Sep-28 14:37 332 10 gusting 11 12.8
2016-Sep-28 14:32 313 7 gusting 13 12.8
2016-Sep-28 14:27 325 7 gusting 11 12.8
2016-Sep-28 14:22 316 8 gusting 11 12.8
2016-Sep-28 14:17 347 7 gusting 10 12.8
2016-Sep-28 14:12 329 9 gusting 12 12.8
2016-Sep-28 14:07 304 13 gusting 12 12.8
2016-Sep-28 14:02 319 10 gusting 12 12.8
2016-Sep-28 13:57 335 10 gusting 12 12.8
2016-Sep-28 13:52 328 12 gusting 12 12.2
2016-Sep-28 13:48 299 10 gusting 11 12.2
2016-Sep-28 13:42 336 10 gusting 13 12.2
2016-Sep-28 13:37 311 11 gusting 13 12.8
2016-Sep-28 13:32 315 14 gusting 14 12.8
2016-Sep-28 13:27 308 7 gusting 11 12.8
2016-Sep-28 13:23 339 7 gusting 8 12.8
2016-Sep-28 13:17 308 13 gusting 13 12.8
2016-Sep-28 13:07 304 9 gusting 11 12.8
2016-Sep-28 13:03 302 9 gusting 13 12.8
2016-Sep-28 12:57 315 11 gusting 10 12.8
2016-Sep-28 11:47 318 10 gusting 10 12.2
2016-Sep-28 11:42 321 11 gusting 13 12.2
2016-Sep-28 11:37 328 16 gusting 15 13.3
2016-Sep-28 11:32 315 10 gusting 13 13.3
2016-Sep-28 11:27 299 12 gusting 13 13.3
2016-Sep-28 11:23 295 13 gusting 13 13.3
2016-Sep-28 11:17 290 15 gusting 13 13.3
2016-Sep-28 11:12 289 14 gusting 18 13.3
2016-Sep-28 11:07 318 13 gusting 15 13.3
2016-Sep-28 11:02 310 13 gusting 14 13.3
2016-Sep-28 10:57 323 10 gusting 12 13.3
2016-Sep-28 10:52 314 11 gusting 13 13.3
2016-Sep-28 10:47 308 12 gusting 13 13.3
2016-Sep-28 10:42 304 17 gusting 17 13.3
2016-Sep-28 10:37 294 14 gusting 13 13.3
2016-Sep-28 10:32 293 10 gusting 13 13.3
2016-Sep-28 10:27 289 10 gusting 11 13.3
2016-Sep-28 10:22 316 11 gusting 11 12.8
2016-Sep-28 10:17 270 10 gusting 13 12.8
2016-Sep-28 10:12 322 12 gusting 13 12.8
2016-Sep-28 10:07 324 11 gusting 10 12.8
2016-Sep-28 09:32 296 11 gusting 15 12.2
2016-Sep-28 09:27 303 9 gusting 10 12.2
2016-Sep-28 09:22 343 14 gusting 14 12.2
2016-Sep-28 09:17 313 11 gusting 13 12.2
2016-Sep-28 09:12 309 8 gusting 11 12.2
2016-Sep-28 09:07 295 11 gusting 13 12.2
2016-Sep-28 09:02 297 9 gusting 12 11.7
2016-Sep-28 08:57 276 10 gusting 12 11.7
2016-Sep-28 08:52 281 12 gusting 12 12.2
2016-Sep-28 08:47 289 8 gusting 10 12.2
2016-Sep-28 08:42 278 11 gusting 13 11.7
2016-Sep-28 08:37 279 11 gusting 11 11.7
2016-Sep-28 08:32 274 10 gusting 11 11.7
2016-Sep-28 08:27 288 8 gusting 10 11.7
2016-Sep-28 08:22 292 9 gusting 10 11.7
2016-Sep-28 08:17 278 11 gusting 11 11.7
2016-Sep-28 08:12 291 13 gusting 13 11.7
2016-Sep-28 08:07 295 8 gusting 10 12.2
2016-Sep-28 08:02 282 13 gusting 17 12.2
2016-Sep-28 07:57 258 14 gusting 15 12.2
2016-Sep-28 07:28 269 13 gusting 13 12.2
2016-Sep-28 07:23 258 11 gusting 15 12.2
2016-Sep-28 07:17 255 13 gusting 15 12.2
2016-Sep-28 07:12 248 13 gusting 18 12.2
2016-Sep-28 07:07 251 13 gusting 17 12.2
2016-Sep-28 07:02 283 11 gusting 14 12.2
2016-Sep-28 06:57 265 11 gusting 17 11.7
2016-Sep-28 06:52 256 13 gusting 15 11.7
2016-Sep-28 06:47 276 19 gusting 19 11.7
2016-Sep-28 06:43 264 14 gusting 17 11.7
2016-Sep-28 06:37 270 13 gusting 14 11.7
2016-Sep-28 06:33 248 12 gusting 14 11.7
2016-Sep-28 06:27 248 13 gusting 15 11.7
2016-Sep-28 06:22 252 13 gusting 18 11.7
2016-Sep-28 06:17 254 14 gusting 13 11.7
2016-Sep-28 06:12 259 18 gusting 22 11.7
2016-Sep-28 06:08 251 19 gusting 19 12.2
2016-Sep-28 06:02 253 17 gusting 20 12.2
2016-Sep-28 05:58 253 20 gusting 22 12.2
2016-Sep-28 05:52 255 14 gusting 15 12.2
2016-Sep-28 05:47 244 13 gusting 17 12.2
2016-Sep-28 05:43 248 9 gusting 14 12.2
2016-Sep-28 05:37 258 16 gusting 19 12.2
2016-Sep-28 05:33 265 17 gusting 19 12.2
2016-Sep-28 05:27 252 20 gusting 19 12.2
2016-Sep-28 05:22 257 15 gusting 19 12.2
2016-Sep-28 05:17 247 13 gusting 17 12.2
2016-Sep-28 05:12 269 18 gusting 21 12.2
2016-Sep-28 05:07 261 16 gusting 18 12.2
2016-Sep-28 05:02 248 15 gusting 19 12.2
2016-Sep-28 04:57 256 16 gusting 19 12.2
2016-Sep-28 04:53 279 18 gusting 18 11.7
2016-Sep-28 04:47 256 16 gusting 18 11.7
2016-Sep-28 04:42 255 23 gusting 26 11.7
2016-Sep-28 04:37 278 19 gusting 20 11.7
2016-Sep-28 04:32 248 19 gusting 21 11.7
2016-Sep-28 04:27 266 22 gusting 33 11.7
2016-Sep-28 04:22 277 26 gusting 28 12.2
2016-Sep-28 04:18 254 16 gusting 18 12.2
2016-Sep-28 04:12 256 23 gusting 24 12.2
2016-Sep-28 04:07 255 18 gusting 26 12.2
2016-Sep-28 04:02 255 25 gusting 26 12.2
2016-Sep-28 03:57 248 24 gusting 28 12.2
2016-Sep-28 03:53 261 19 gusting 26 12.2
2016-Sep-28 03:47 265 20 gusting 26 12.2
2016-Sep-28 03:42 284 18 gusting 26 12.2
2016-Sep-28 03:37 248 26 gusting 26 12.2
2016-Sep-28 03:32 223 19 gusting 22 12.2
2016-Sep-28 03:27 253 26 gusting 25 12.2
2016-Sep-28 03:22 260 27 gusting 31 12.2
2016-Sep-28 03:17 268 19 gusting 30 12.2
2016-Sep-28 03:12 254 21 gusting 24 12.2
2016-Sep-28 03:07 260 32 gusting 34 12.2
2016-Sep-28 03:02 258 19 gusting 21 12.2
2016-Sep-28 02:57 259 26 gusting 25 12.2
2016-Sep-28 02:52 249 30 gusting 37 12.2
2016-Sep-28 02:47 241 33 gusting 33 12.2
2016-Sep-28 02:42 258 25 gusting 26 11.7
2016-Sep-28 02:37 250 25 gusting 26 12.2
2016-Sep-28 02:32 246 37 gusting 38 12.2
2016-Sep-28 02:28 264 18 gusting 30 12.2
2016-Sep-28 02:23 217 27 gusting 30 12.2
2016-Sep-28 02:17 243 25 gusting 28 12.2
2016-Sep-28 02:12 269 25 gusting 25 12.2
2016-Sep-28 02:08 248 19 gusting 22 12.2
2016-Sep-28 02:02 255 21 gusting 26 12.2
2016-Sep-28 01:57 251 24 gusting 30 12.2
2016-Sep-28 01:52 243 20 gusting 22 12.2
2016-Sep-28 01:47 266 24 gusting 20 12.2
2016-Sep-28 01:42 235 19 gusting 26 12.2
2016-Sep-28 01:37 248 24 gusting 25 12.2
2016-Sep-28 01:32 239 19 gusting 30 12.2
2016-Sep-28 01:27 263 25 gusting 28 12.2
2016-Sep-28 01:22 244 28 gusting 28 12.2
2016-Sep-28 01:17 248 20 gusting 19 12.2
2016-Sep-28 01:12 229 17 gusting 26 12.2
2016-Sep-28 01:07 225 24 gusting 22 12.2
2016-Sep-28 01:02 238 22 gusting 25 12.2
2016-Sep-28 00:57 214 20 gusting 24 12.2
2016-Sep-28 00:52 240 25 gusting 26 12.2
2016-Sep-28 00:47 207 23 gusting 26 12.2
2016-Sep-28 00:42 216 28 gusting 27 12.2
2016-Sep-28 00:37 229 24 gusting 27 12.2
2016-Sep-28 00:32 218 20 gusting 22 12.2
2016-Sep-28 00:28 212 25 gusting 27 12.2
2016-Sep-28 00:22 227 28 gusting 28 12.2
2016-Sep-28 00:17 244 28 gusting 25 12.2
2016-Sep-28 00:12 248 30 gusting 33 12.2
2016-Sep-28 00:07 209 25 gusting 27 12.2
2016-Sep-28 00:02 235 31 gusting 30 12.2
2016-Sep-27 23:57 241 28 gusting 30 12.2
2016-Sep-27 23:52 221 22 gusting 30 12.2
2016-Sep-27 23:47 217 24 gusting 31 12.2
2016-Sep-27 23:42 244 19 gusting 28 12.8
2016-Sep-27 23:37 247 26 gusting 27 12.8
2016-Sep-27 23:32 217 20 gusting 21 12.8
2016-Sep-27 23:27 221 25 gusting 32 12.8
2016-Sep-27 23:23 203 26 gusting 27 12.8
2016-Sep-27 23:17 213 22 gusting 33 12.8
2016-Sep-27 23:13 210 24 gusting 27 12.8
2016-Sep-27 23:07 225 22 gusting 26 12.8
2016-Sep-27 23:02 238 21 gusting 34 12.8
2016-Sep-27 22:57 202 28 gusting 28 12.8
2016-Sep-27 22:52 212 23 gusting 25 12.8
2016-Sep-27 22:47 219 24 gusting 24 12.8
2016-Sep-27 22:42 233 26 gusting 34 13.3
2016-Sep-27 22:37 236 25 gusting 32 13.3
2016-Sep-27 22:32 216 34 gusting 33 13.3
2016-Sep-27 22:27 205 22 gusting 26 13.3
2016-Sep-27 22:22 209 21 gusting 24 12.8
2016-Sep-27 22:17 204 20 gusting 31 12.8
2016-Sep-27 22:13 239 26 gusting 30 13.3
2016-Sep-27 22:07 202 26 gusting 32 13.3
2016-Sep-27 22:02 208 25 gusting 28 12.8
2016-Sep-27 21:57 216 20 gusting 21 12.8
2016-Sep-27 21:52 208 17 gusting 19 12.8
2016-Sep-27 21:47 218 22 gusting 26 12.8
2016-Sep-27 21:43 225 24 gusting 27 12.8
2016-Sep-27 21:37 212 24 gusting 26 12.8
2016-Sep-27 21:32 225 25 gusting 26 13.3
2016-Sep-27 21:27 221 26 gusting 26 13.3
2016-Sep-27 21:22 225 26 gusting 28 13.3
2016-Sep-27 21:17 216 27 gusting 26 13.3
2016-Sep-27 21:12 218 16 gusting 22 13.3
2016-Sep-27 21:07 225 25 gusting 24 13.3
2016-Sep-27 21:02 231 19 gusting 21 13.3
2016-Sep-27 20:57 237 23 gusting 21 13.3
2016-Sep-27 20:52 212 19 gusting 19 12.8
2016-Sep-27 20:47 201 17 gusting 18 12.8
2016-Sep-27 20:42 195 14 gusting 14 13.3
2016-Sep-27 20:37 221 13 gusting 25 13.3
2016-Sep-27 20:32 220 19 gusting 19 13.3
2016-Sep-27 20:27 202 22 gusting 20 13.3
2016-Sep-27 20:22 217 17 gusting 19 13.3
2016-Sep-27 20:17 210 15 gusting 19 13.3
2016-Sep-27 20:12 218 14 gusting 18 13.3
2016-Sep-27 20:07 215 13 gusting 13 12.8
2016-Sep-27 20:02 216 11 gusting 19 12.8
2016-Sep-27 19:57 195 15 gusting 18 12.8
2016-Sep-27 19:52 203 13 gusting 19 12.8
2016-Sep-27 19:47 216 13 gusting 19 13.3
2016-Sep-27 19:42 198 16 gusting 13 12.8
2016-Sep-27 19:37 216 12 gusting 13 12.8
2016-Sep-27 19:32 206 12 gusting 13 12.8
2016-Sep-27 19:27 212 18 gusting 21 12.8
2016-Sep-27 19:22 240 14 gusting 15 12.8
2016-Sep-27 19:17 222 17 gusting 19 12.8
2016-Sep-27 19:12 236 18 gusting 18 12.8
2016-Sep-27 19:07 239 13 gusting 18 12.8
2016-Sep-27 19:02 200 17 gusting 19 12.8
2016-Sep-27 18:57 225 14 gusting 19 12.8
2016-Sep-27 18:52 221 13 gusting 14 12.8
2016-Sep-27 18:47 235 13 gusting 14 12.8
2016-Sep-27 18:42 221 13 gusting 14 12.8
2016-Sep-27 18:37 231 16 gusting 15 12.8
2016-Sep-27 18:32 240 13 gusting 13 12.8
2016-Sep-27 18:27 217 14 gusting 15 12.8
2016-Sep-27 18:22 223 17 gusting 19 12.8
2016-Sep-27 18:17 235 14 gusting 17 12.8
2016-Sep-27 18:12 248 12 gusting 20 12.8
2016-Sep-27 18:07 232 14 gusting 14 12.8
2016-Sep-27 18:02 239 13 gusting 15 12.8
2016-Sep-27 17:57 239 17 gusting 19 12.8
2016-Sep-27 17:52 240 17 gusting 15 12.8
2016-Sep-27 17:48 246 15 gusting 17 12.8
2016-Sep-27 17:43 253 19 gusting 19 12.8
2016-Sep-27 17:37 265 13 gusting 15 12.8
2016-Sep-27 17:32 259 17 gusting 20 12.8
2016-Sep-27 17:27 246 18 gusting 19 12.8
2016-Sep-27 17:22 255 19 gusting 20 12.8
2016-Sep-27 17:17 270 19 gusting 22 12.8
2016-Sep-27 17:12 259 19 gusting 22 12.8
2016-Sep-27 17:07 253 18 gusting 19 12.8
2016-Sep-27 17:02 266 20 gusting 25 12.8
2016-Sep-27 16:57 240 18 gusting 22 12.8
2016-Sep-27 16:52 248 19 gusting 21 12.8
2016-Sep-27 16:47 270 19 gusting 21 12.8
2016-Sep-27 16:42 259 24 gusting 27 12.8
2016-Sep-27 16:37 261 21 gusting 22 12.8
2016-Sep-27 16:32 267 22 gusting 24 12.8
2016-Sep-27 16:27 243 21 gusting 26 12.8
2016-Sep-27 16:22 266 30 gusting 33 13.3
2016-Sep-27 16:17 244 24 gusting 25 13.9
2016-Sep-27 16:12 243 26 gusting 27 13.9
2016-Sep-27 16:07 238 25 gusting 34 13.9
2016-Sep-27 16:02 225 34 gusting 40 13.9
2016-Sep-27 15:57 216 32 gusting 37 13.9
2016-Sep-27 15:52 218 26 gusting 33 13.3
2016-Sep-27 15:47 214 32 gusting 37 13.3
2016-Sep-27 15:42 181 23 gusting 33 13.3
2016-Sep-27 15:37 208 26 gusting 35 13.3
2016-Sep-27 15:32 224 28 gusting 33 13.3
2016-Sep-27 15:27 216 30 gusting 28 13.3
2016-Sep-27 15:22 220 27 gusting 26 13.3
2016-Sep-27 15:17 202 24 gusting 28 12.8
2016-Sep-27 15:12 198 28 gusting 31 12.8
2016-Sep-27 15:07 178 27 gusting 38 12.8
2016-Sep-27 15:02 186 26 gusting 26 12.8
2016-Sep-27 14:57 176 30 gusting 30 12.8
2016-Sep-27 14:52 172 24 gusting 25 12.8
2016-Sep-27 14:48 168 32 gusting 30 12.8
2016-Sep-27 14:42 180 33 gusting 33 12.8
2016-Sep-27 14:37 208 35 gusting 35 12.8
2016-Sep-27 14:32 175 40 gusting 39 12.8
2016-Sep-27 14:27 171 26 gusting 26 12.8
2016-Sep-27 14:22 155 26 gusting 26 12.8
2016-Sep-27 14:17 177 28 gusting 31 12.8
2016-Sep-27 14:12 164 25 gusting 22 12.8
2016-Sep-27 14:07 166 26 gusting 27 12.8
2016-Sep-27 14:02 176 28 gusting 33 12.8
2016-Sep-27 13:57 162 25 gusting 33 12.8
2016-Sep-27 13:53 176 35 gusting 33 13.3
2016-Sep-27 13:47 208 39 gusting 47 13.3
2016-Sep-27 13:42 187 26 gusting 38 13.3
2016-Sep-27 13:38 166 28 gusting 41 13.3
2016-Sep-27 13:32 192 37 gusting 34 13.3
2016-Sep-27 13:27 183 25 gusting 26 13.3
2016-Sep-27 13:22 151 32 gusting 31 13.3
2016-Sep-27 13:17 185 28 gusting 26 13.3
2016-Sep-27 13:12 176 27 gusting 26 13.9
2016-Sep-27 13:07 188 28 gusting 28 13.9
2016-Sep-27 13:02 197 27 gusting 30 13.9
2016-Sep-27 12:57 181 33 gusting 32 13.9
2016-Sep-27 12:53 203 26 gusting 26 13.9
2016-Sep-27 12:47 171 26 gusting 30 13.9
2016-Sep-27 12:42 156 28 gusting 32 13.9
2016-Sep-27 12:37 184 20 gusting 20 13.9
2016-Sep-27 12:32 166 19 gusting 20 13.9
2016-Sep-27 12:27 173 33 gusting 39 13.9
2016-Sep-27 12:22 167 21 gusting 25 13.9
2016-Sep-27 12:17 167 26 gusting 26 13.9
2016-Sep-27 12:13 171 20 gusting 27 13.9
2016-Sep-27 12:07 192 29 gusting 28 13.9
2016-Sep-27 12:03 185 19 gusting 20 13.9
2016-Sep-27 11:57 176 24 gusting 32 13.9
2016-Sep-27 11:52 155 25 gusting 28 13.9
2016-Sep-27 11:47 190 19 gusting 26 13.9
2016-Sep-27 11:42 200 20 gusting 25 13.9
2016-Sep-27 11:37 171 20 gusting 26 13.9
2016-Sep-27 11:32 190 23 gusting 30 13.9
2016-Sep-27 11:27 176 25 gusting 32 13.9
2016-Sep-27 11:22 198 35 gusting 33 13.9
2016-Sep-27 11:17 170 20 gusting 19 13.9
2016-Sep-27 11:12 186 25 gusting 26 13.9
2016-Sep-27 11:07 185 17 gusting 19 13.9
2016-Sep-27 11:02 183 19 gusting 25 13.9
2016-Sep-27 10:57 177 18 gusting 19 13.9
2016-Sep-27 10:52 166 20 gusting 24 13.9
2016-Sep-27 10:47 169 20 gusting 19 13.9
2016-Sep-27 10:42 173 21 gusting 20 13.9
2016-Sep-27 10:37 180 19 gusting 19 13.9
2016-Sep-27 10:32 174 19 gusting 19 13.9
2016-Sep-27 10:27 167 21 gusting 18 13.9
2016-Sep-27 10:22 168 21 gusting 27 13.9
2016-Sep-27 10:17 153 22 gusting 25 13.9
2016-Sep-27 10:12 169 18 gusting 18 13.9
2016-Sep-27 10:07 171 22 gusting 21 13.3
2016-Sep-27 10:02 171 18 gusting 19 13.3
2016-Sep-27 09:57 183 21 gusting 26 13.3
2016-Sep-27 09:52 162 25 gusting 27 13.3
2016-Sep-27 09:47 165 25 gusting 21 13.3
2016-Sep-27 09:42 180 14 gusting 18 12.8
2016-Sep-27 09:37 180 27 gusting 31 12.8
2016-Sep-27 09:32 183 12 gusting 14 12.8
2016-Sep-27 09:27 163 11 gusting 14 12.8
2016-Sep-27 09:23 185 20 gusting 30 12.8
2016-Sep-27 09:18 156 27 gusting 30 12.8
2016-Sep-27 09:12 163 25 gusting 24 13.3
2016-Sep-27 09:07 179 26 gusting 26 13.3
2016-Sep-27 09:02 154 20 gusting 22 13.3
2016-Sep-27 08:57 155 27 gusting 26 13.3
2016-Sep-27 08:52 164 15 gusting 17 13.3
2016-Sep-27 08:47 162 14 gusting 18 13.3
2016-Sep-27 08:42 150 26 gusting 27 12.8
2016-Sep-27 08:37 188 25 gusting 30 12.8
2016-Sep-27 08:32 158 7 gusting 13 12.8
2016-Sep-27 08:27 176 15 gusting 19 12.8
2016-Sep-27 08:22 167 8 gusting 11 12.8
2016-Sep-27 08:17 180 19 gusting 19 12.8
2016-Sep-27 08:12 149 14 gusting 18 12.8
2016-Sep-27 08:07 176 11 gusting 13 12.8
2016-Sep-27 08:02 170 21 gusting 25 12.8
2016-Sep-27 07:57 151 10 gusting 12 12.8
2016-Sep-27 07:52 170 13 gusting 15 12.8
2016-Sep-27 07:47 169 10 gusting 13 12.8
2016-Sep-27 07:42 160 10 gusting 13 12.8
2016-Sep-27 07:37 174 8 gusting 11 12.8
2016-Sep-27 07:32 171 11 gusting 13 12.8
2016-Sep-27 07:27 162 19 gusting 22 12.8
2016-Sep-27 07:22 191 20 gusting 24 12.8
2016-Sep-27 07:17 180 10 gusting 15 12.8
2016-Sep-27 07:12 208 13 gusting 15 12.8
2016-Sep-27 07:07 183 18 gusting 19 12.8
2016-Sep-27 07:02 156 9 gusting 13 12.8
2016-Sep-27 06:57 166 10 gusting 13 12.8
2016-Sep-27 06:52 179 9 gusting 13 12.8
2016-Sep-27 06:47 164 22 gusting 22 12.8
2016-Sep-27 06:42 161 10 gusting 13 12.8
2016-Sep-27 06:37 144 11 gusting 17 12.8
2016-Sep-27 06:32 180 13 gusting 13 12.8
2016-Sep-27 06:27 175 18 gusting 21 12.8
2016-Sep-27 06:22 167 12 gusting 13 12.2
2016-Sep-27 06:17 152 8 gusting 12 12.2
2016-Sep-27 06:12 212 8 gusting 12 12.2
2016-Sep-27 06:07 159 8 gusting 11 12.2
2016-Sep-27 06:02 105 6 gusting 8 12.2